TimeCST,TemperatureF,Dew PointF,Humidity,Sea Level PressureIn,VisibilityMPH,Wind Direction,Wind SpeedMPH,Gust SpeedMPH,PrecipitationIn,Events,Conditions,WindDirDegrees,DateUTC
12:56 AM,72.0,63.0,73,29.99,10.0,SSE,16.1,-,N/A,,Clear,150,2012-11-09 06:56:00
1:56 AM,72.0,61.9,70,29.98,10.0,SSE,16.1,-,N/A,,Clear,150,2012-11-09 07:56:00
2:56 AM,70.9,61.0,71,29.97,10.0,SSE,18.4,-,N/A,,Clear,150,2012-11-09 08:56:00
3:56 AM,70.0,61.9,75,29.97,10.0,SSE,15.0,-,N/A,,Clear,160,2012-11-09 09:56:00
4:56 AM,70.0,61.9,75,29.97,10.0,SSE,17.3,-,N/A,,Clear,150,2012-11-09 10:56:00
5:56 AM,68.9,61.9,78,29.97,10.0,SSE,12.7,-,N/A,,Clear,150,2012-11-09 11:56:00
6:56 AM,66.9,61.9,84,29.99,10.0,SE,11.5,-,N/A,,Clear,140,2012-11-09 12:56:00
7:56 AM,68.9,63.0,81,30.00,10.0,SSE,13.8,-,N/A,,Clear,150,2012-11-09 13:56:00
8:56 AM,72.9,61.9,68,30.01,10.0,SSE,18.4,25.3,N/A,,Clear,150,2012-11-09 14:56:00
9:56 AM,77.0,61.0,58,30.03,10.0,South,20.7,-,N/A,,Clear,170,2012-11-09 15:56:00
10:56 AM,81.9,57.9,44,30.01,10.0,South,21.9,28.8,N/A,,Clear,170,2012-11-09 16:56:00
11:56 AM,84.9,55.9,37,29.98,10.0,SSE,21.9,29.9,N/A,,Clear,150,2012-11-09 17:56:00
12:56 PM,88.0,55.9,34,29.95,10.0,SSE,23.0,27.6,N/A,,Clear,160,2012-11-09 18:56:00
1:56 PM,88.9,54.9,31,29.91,10.0,South,21.9,-,N/A,,Clear,170,2012-11-09 19:56:00
2:56 PM,88.9,54.9,31,29.89,10.0,SSE,20.7,28.8,N/A,,Clear,150,2012-11-09 20:56:00
3:56 PM,88.0,54.9,32,29.88,10.0,SE,19.6,27.6,N/A,,Clear,130,2012-11-09 21:56:00
4:56 PM,86.0,54.9,34,29.89,6.0,SE,24.2,-,N/A,,Haze,140,2012-11-09 22:56:00
5:56 PM,83.8,55.9,38,29.91,9.0,SE,16.1,-,N/A,,Clear,140,2012-11-09 23:56:00
6:56 PM,81.0,55.9,42,29.93,10.0,SE,17.3,-,N/A,,Clear,130,2012-11-10 00:56:00
7:56 PM,79.0,55.9,45,29.94,10.0,SE,21.9,27.6,N/A,,Clear,140,2012-11-10 01:56:00
8:56 PM,77.0,56.8,50,29.95,10.0,SE,17.3,26.5,N/A,,Clear,140,2012-11-10 02:56:00
9:56 PM,74.8,59.0,58,29.97,10.0,SSE,18.4,-,N/A,,Clear,150,2012-11-10 03:56:00
10:56 PM,73.9,61.0,64,29.97,10.0,SSE,20.7,-,N/A,,Clear,150,2012-11-10 04:56:00
11:56 PM,72.9,61.0,66,29.97,10.0,SSE,16.1,-,N/A,,Clear,150,2012-11-10 05:56:00